Home   Weather   Lakeland   Past weeks

Flag for USA Past Weather in Lakeland, Florida, USA — Yesterday and Last 2 Weeks

Now
79 °F

Sunny.


Feels Like: 80 °F
Forecast: 54 / 77 °F
Wind: 12 mph from East

Location: Lakeland Regional

Current Time: Dec 3, 2016 at 3:01:17 pm

Latest Report: Dec 3, 2016 at 1:50 pm


Visibility: 10 mi

Pressure: 30.09 "Hg

Humidity: 48%

Dew Point: 57 °F

Location of LakelandLocation

Past Weather in Lakeland — Graph

°F

Lakeland Temperature Yesterday

Maximum temperature yesterday: 73 °F (at 2:50 pm)
Minimum temperature yesterday: 55 °F (at 5:35 am)
Average temperature yesterday: 61 °F

High & Low Weather Summary for the Past Weeks

 TemperatureHumidityPressure
High84 °F (Nov 29, 2:54 pm)100% (Nov 19, 12:35 am)30.28 "Hg (Nov 19, 12:35 am)
Low39 °F (Nov 21, 3:35 am)20% (Nov 21, 3:50 pm)29.94 "Hg (Nov 29, 2:35 am)
Average62 °F78%30.12 "Hg
* Reported Nov 18 1:50 pm — Dec 3 1:50 pm, Lakeland, Weather by CustomWeather, © 2016

Note: Actual official high and low records may vary slightly from our data, if they occured in-between our weather recording intervals... More about our weather records

Advertising

Lakeland Weather History for the Previous 24 Hours

Scroll right to see more
 ConditionsComfort  
Time TempWeatherWind HumidityBarometerVisibility
1:50 pm
Sat, Dec 3
79 °FSunny.12 mph48%30.09 "Hg10 mi
12:50 pm75 °FSunny.8 mph54%30.11 "Hg10 mi
11:50 am75 °FSunny.12 mph54%30.14 "Hg10 mi
10:50 am72 °FSunny.9 mph61%30.17 "Hg10 mi
9:50 am66 °FSunny.12 mph64%30.18 "Hg10 mi
8:50 am61 °FSunny.7 mph77%30.18 "Hg10 mi
7:50 am57 °FScattered clouds.6 mph82%30.18 "Hg10 mi
6:50 am57 °FPassing clouds.6 mph82%30.16 "Hg10 mi
5:54 am57 °FPassing clouds.8 mph77%30.15 "Hg10 mi
5:35 am57 °FClear.10 mph77%30.16 "Hg10 mi
5:15 am57 °FClear.9 mph72%30.15 "Hg10 mi
4:55 am55 °FClear.7 mph77%30.15 "Hg10 mi
4:35 am55 °FPassing clouds.7 mph77%30.15 "Hg10 mi
4:15 am55 °FPassing clouds.6 mph77%30.15 "Hg10 mi
3:55 am55 °FPassing clouds.8 mph72%30.15 "Hg10 mi
2:55 am55 °FClear.8 mph67%30.16 "Hg10 mi
2:35 am55 °FClear.8 mph67%30.16 "Hg10 mi
2:15 am55 °FClear.8 mph67%30.15 "Hg10 mi
1:55 am55 °FClear.8 mph63%30.16 "Hg10 mi
1:15 am55 °FClear.9 mph63%30.16 "Hg10 mi
12:55 am57 °FClear.8 mph59%30.16 "Hg10 mi
12:15 am57 °FClear.9 mph59%30.17 "Hg10 mi
11:55 pm
Fri, Dec 2
57 °FClear.8 mph55%30.18 "Hg10 mi
11:35 pm57 °FClear.9 mph55%30.18 "Hg10 mi
11:15 pm57 °FClear.9 mph59%30.18 "Hg10 mi
10:55 pm57 °FClear.6 mph63%30.19 "Hg10 mi
10:35 pm57 °FClear.5 mph63%30.19 "Hg10 mi
10:15 pm59 °FClear.8 mph55%30.18 "Hg10 mi
8:50 pm61 °FClear.9 mph48%30.18 "Hg10 mi
7:50 pm61 °FClear.6 mph52%30.15 "Hg10 mi
6:50 pm63 °FClear.7 mph49%30.13 "Hg10 mi
5:50 pm66 °FClear.6 mph43%30.11 "Hg10 mi
4:50 pm72 °FSunny.7 mph33%30.11 "Hg10 mi
3:50 pm73 °FSunny.7 mph36%30.10 "Hg10 mi
Weather by CustomWeather, © 2016

See weather overviewHow to use our weather pages